Notices

What's New in latest Release from April 7th, 2021:

- Updated Glossary, including Speed of Maximum Gust, and Total Hourly Precipitation

- Updated national and regional climate services offices contacts and prices information

- Addition of station inventory lists for 1981-2010, 1971-2000, and 1961-1990 Normals.

If you haven't already, please take our survey and provide feedback about our website: https://eccc.sondage-survey.ca/f/LanguageSelection.aspx?s=442ca660-fcf1-47c0-95a9-59707d6fd709

Hourly Data Report for September 18, 2018

TORONTO CITY
ONTARIO
Current Station Operator: ECCC - MSC

43°40'00.000" N
79°24'00.000" W
112.50 m
6158355
71508
XTO

Download Data

Hourly Data (September 2018)
Hourly Data Report for September 18, 2018
TIME
LST
Temp Definition
°C
Dew Point Definition
°C
Rel Hum Definition
%
Precip. Amount Definition
mm

Wind Dir Definition
10's deg

Wind Spd Definition
km/h
Visibility Definition
km
Stn Press Definition
kPa
Hmdx Definition


Wind Chill Definition


Weather Definition


00:00 21.7 18.3 81 0.0 LegendMM LegendMM   99.78 28   LegendNANA
01:00 22.1 18.3 79 0.0 LegendMM LegendMM   99.76 28   LegendNANA
02:00 20.9 18.0 84 0.0 LegendMM LegendMM   99.71 27   LegendNANA
03:00 20.9 17.9 83 0.0 LegendMM LegendMM   99.68 27   LegendNANA
04:00 21.2 18.3 84 0.0 LegendMM LegendMM   99.66 27   LegendNANA
05:00 20.7 17.6 82 0.0 LegendMM LegendMM   99.66 26   LegendNANA
06:00 20.4 17.7 84 0.0 LegendMM LegendMM   99.67 26   LegendNANA
07:00 21.0 17.8 82 0.0 LegendMM LegendMM   99.73 27   LegendNANA
08:00 22.7 17.7 74 0.0 LegendMM LegendMM   99.71 28   LegendNANA
09:00 23.4 17.6 70 0.0 LegendMM LegendMM   99.73 29   LegendNANA
10:00 23.9 17.8 69 0.0 LegendMM LegendMM   99.77 30   LegendNANA
11:00 23.8 16.7 64 0.0 LegendMM LegendMM   99.77 29   LegendNANA
12:00 25.8 17.3 59 0.0 LegendMM LegendMM   99.77 31   LegendNANA
13:00 26.4 15.1 50 0.0 LegendMM LegendMM   99.71 30   LegendNANA
14:00 26.9 13.4 44 0.0 LegendMM LegendMM   99.67 30   LegendNANA
15:00 27.5 13.9 43 0.0 LegendMM LegendMM   99.63 31   LegendNANA
16:00 26.2 14.9 50 0.0 LegendMM LegendMM   99.67 30   LegendNANA
17:00 24.9 14.7 53 0.0 LegendMM LegendMM   99.71 29   LegendNANA
18:00 22.8 14.3 59 0.0 LegendMM LegendMM   99.75 26   LegendNANA
19:00 20.1 13.3 65 0.0 LegendMM LegendMM   99.83     LegendNANA
20:00 17.8 12.5 71 0.0 LegendMM LegendMM   99.93     LegendNANA
21:00 17.0 12.3 74 0.0 LegendMM LegendMM   99.91     LegendNANA
22:00 16.6 12.1 75 0.0 LegendMM LegendMM   99.96     LegendNANA
23:00 16.4 12.2 76 0.0 LegendMM LegendMM   99.96     LegendNANA

Notes on Data Quality.

Legend

  • E = Estimated
  • M = Missing
  • NA = Not Available*
  • [empty] = Indicates an unobserved value
Date modified: